DW6417 Weather Reports


Display with metric or nautical units.
time (UTC)temp
F
wind
direction
speed
MPH
gust
MPH
rain 1hr
in
rain 24hr
in
rain mn
in
humidity
%
barometer
mb
20260510061624 52 82 2.0 5.0 0.00 0.00 0.00 81 1012.7
20260510061418 52 82 2.0 6.0 0.00 0.00 0.00 81 1012.7
20260510060917 52 83 2.0 5.0 0.00 0.00 0.00 81 1012.7
20260510060623 51 82 2.0 4.0 0.00 0.00 0.00 82 1012.7
20260510060417 51 84 1.0 4.0 0.00 0.00 0.00 82 1012.7
20260510055918 51 85 1.0 3.0 0.00 0.00 0.00 83 1012.7
20260510055623 51 84 2.0 3.0 0.00 0.00 0.00 83 1012.8
20260510055418 51 85 2.0 4.0 0.00 0.00 0.00 83 1012.7
20260510054918 51 85 1.0 4.0 0.00 0.00 0.00 83 1012.6
20260510054623 50 84 2.0 4.0 0.00 0.00 0.00 83 1012.7
20260510054418 50 85 2.0 4.0 0.00 0.00 0.00 83 1012.7
20260510053918 50 85 2.0 5.0 0.00 0.00 0.00 84 1012.7
20260510053623 50 85 2.0 5.0 0.00 0.00 0.00 84 1012.7
20260510052918 50 86 2.0 5.0 0.00 0.00 0.00 84 1012.7
20260510052624 50 85 2.0 5.0 0.00 0.00 0.00 84 1012.7
20260510052418 50 88 2.0 6.0 0.00 0.00 0.00 84 1012.7
20260510051917 49 90 2.0 6.0 0.00 0.00 0.00 85 1012.7
20260510051624 49 92 1.0 3.0 0.00 0.00 0.00 85 1012.7
20260510050918 49 97 1.0 8.0 0.00 0.00 0.00 85 1012.7
20260510050623 49 101 1.0 2.0 0.00 0.00 0.00 86 1012.7
20260510050417 49 100 1.0 3.0 0.00 0.00 0.00 86 1012.7
20260510045918 49 101 1.0 3.0 0.00 0.00 0.00 86 1012.6
20260510045418 49 101 1.0 2.0 0.00 0.00 0.00 86 1012.8
20260510044918 49 101 1.0 3.0 0.00 0.00 0.00 86 1012.8
20260510044623 48 101 1.0 3.0 0.00 0.00 0.00 86 1012.8
20260510044418 48 101 1.0 3.0 0.00 0.00 0.00 86 1012.7
20260510043918 48 101 1.0 4.0 0.00 0.00 0.00 86 1012.8
20260510043623 48 101 1.0 4.0 0.00 0.00 0.00 86 1012.8
20260510043417 48 108 1.0 4.0 0.00 0.00 0.00 86 1012.8
20260510042918 48 124 1.0 3.0 0.00 0.00 0.00 86 1012.7
20260510042623 48 129 1.0 3.0 0.00 0.00 0.00 86 1012.8
20260510042419 48 129 1.0 3.0 0.00 0.00 0.00 86 1012.8
20260510041917 48 129 1.0 3.0 0.00 0.00 0.00 86 1012.7
20260510041624 48 129 1.0 2.0 0.00 0.00 0.00 85 1012.7
20260510041418 48 0 0.0 2.0 0.00 0.00 0.00 85 1012.7
20260510040918 48 0 0.0 2.0 0.00 0.00 0.00 85 1012.6
20260510040417 48 0 0.0 2.0 0.00 0.00 0.00 85 1012.6
20260510035918 48 0 0.0 2.0 0.00 0.00 0.00 85 1012.7
20260510035623 48 129 0.0 2.0 0.00 0.00 0.00 85 1012.6
20260510035418 48 128 1.0 2.0 0.00 0.00 0.00 85 1012.6
20260510034623 48 129 0.0 2.0 0.00 0.00 0.00 85 1012.7
20260510034418 48 135 1.0 4.0 0.00 0.00 0.00 85 1012.7
20260510033918 48 137 1.0 4.0 0.00 0.00 0.00 85 1012.8
20260510033623 48 138 0.0 3.0 0.00 0.00 0.00 84 1012.7
20260510033418 48 0 0.0 3.0 0.00 0.00 0.00 84 1012.6
20260510032918 48 0 0.0 2.0 0.00 0.00 0.00 84 1012.7
20260510032624 48 138 0.0 2.0 0.00 0.00 0.00 84 1012.7
20260510032418 48 0 0.0 2.0 0.00 0.00 0.00 84 1012.7
20260510031918 48 137 1.0 3.0 0.00 0.00 0.00 84 1012.7
20260510031418 48 137 1.0 3.0 0.00 0.00 0.00 84 1012.7
20260510030624 48 138 0.0 0.0 0.00 0.00 0.00 84 1012.9
20260510030418 48 0 0.0 0.0 0.00 0.00 0.00 84 1012.9
20260510025918 48 0 0.0 0.0 0.00 0.00 0.00 84 1012.8
20260510025623 48 138 0.0 0.0 0.00 0.00 0.00 84 1012.8
20260510025418 48 0 0.0 0.0 0.00 0.00 0.00 84 1012.8
20260510024920 48 0 0.0 0.0 0.00 0.00 0.00 84 1012.8
20260510024624 48 138 0.0 0.0 0.00 0.00 0.00 84 1012.9
20260510023918 48 0 0.0 0.0 0.00 0.00 0.00 84 1012.9
20260510023624 48 138 0.0 0.0 0.00 0.00 0.00 84 1012.9
20260510023418 48 0 0.0 2.0 0.00 0.00 0.00 84 1012.9
20260510022918 48 138 1.0 2.0 0.00 0.00 0.00 84 1012.9
20260510022625 48 138 0.0 2.0 0.00 0.00 0.00 84 1012.9
20260510022418 48 137 1.0 4.0 0.00 0.00 0.00 84 1012.9
20260510021920 48 0 0.0 4.0 0.00 0.00 0.00 83 1012.9
20260510021418 48 0 0.0 2.0 0.00 0.00 0.00 82 1013.0
20260510020917 48 0 0.0 0.0 0.00 0.00 0.00 82 1012.9
20260510020624 48 138 0.0 0.0 0.00 0.00 0.00 82 1013.0
20260510020418 48 0 0.0 0.0 0.00 0.00 0.00 82 1013.0
20260510015918 48 0 0.0 0.0 0.00 0.00 0.00 82 1013.0
20260510015624 48 138 0.0 0.0 0.00 0.00 0.00 82 1013.0
20260510014918 48 0 0.0 0.0 0.00 0.00 0.00 82 1013.0
20260510014623 48 138 0.0 0.0 0.00 0.00 0.00 81 1013.0
20260510014418 48 0 0.0 0.0 0.00 0.00 0.00 81 1013.0
20260510013918 48 0 0.0 0.0 0.00 0.00 0.00 81 1013.0
20260510013624 48 138 0.0 0.0 0.00 0.00 0.00 81 1013.0
20260510013418 48 0 0.0 0.0 0.00 0.00 0.00 81 1013.0
20260510012918 48 0 0.0 0.0 0.00 0.00 0.00 81 1013.0
20260510012624 49 138 0.0 0.0 0.00 0.00 0.00 81 1013.0
20260510012418 49 0 0.0 0.0 0.00 0.00 0.00 81 1013.0
20260510011918 49 0 0.0 0.0 0.00 0.00 0.00 81 1013.1
20260510011624 49 138 0.0 0.0 0.00 0.00 0.00 81 1013.0
20260510011418 49 0 0.0 0.0 0.00 0.00 0.00 81 1013.0
20260510010418 49 0 0.0 0.0 0.00 0.00 0.00 81 1013.1
20260510005918 49 0 0.0 0.0 0.00 0.00 0.00 80 1013.1
20260510005624 49 138 0.0 0.0 0.00 0.00 0.00 80 1013.1
20260510005418 49 0 0.0 0.0 0.00 0.00 0.00 80 1013.1
20260510004624 49 138 0.0 0.0 0.00 0.00 0.00 80 1013.2
20260510004418 49 0 0.0 0.0 0.00 0.00 0.00 80 1013.2
20260510003918 49 0 0.0 0.0 0.00 0.00 0.00 79 1013.2
20260510003624 49 138 0.0 0.0 0.00 0.00 0.00 79 1013.2
20260510003418 49 0 0.0 0.0 0.00 0.00 0.00 79 1013.2
20260510002917 49 0 0.0 0.0 0.00 0.00 0.00 78 1013.1
20260510002624 50 138 0.0 0.0 0.00 0.00 0.00 78 1013.2
20260510002418 50 0 0.0 0.0 0.00 0.00 0.00 78 1013.2
20260510001918 50 0 0.0 0.0 0.00 0.00 0.00 78 1013.2
20260510001624 50 138 0.0 0.0 0.00 0.00 0.00 78 1013.2
20260510001418 50 0 0.0 0.0 0.00 0.00 0.00 78 1013.2
20260510000918 50 0 0.0 0.0 0.00 0.00 0.00 77 1013.2
20260510000624 51 138 0.0 0.0 0.00 0.00 0.00 77 1013.2
20260509235918 51 0 0.0 0.0 0.00 0.00 0.00 76 1013.2
20260509235624 51 138 0.0 0.0 0.00 0.00 0.00 76 1013.3
20260509235418 51 0 0.0 0.0 0.00 0.00 0.00 76 1013.4
20260509234918 51 0 0.0 0.0 0.00 0.00 0.00 76 1013.3
20260509234624 52 138 0.0 0.0 0.00 0.00 0.00 76 1013.3
20260509233918 52 0 0.0 0.0 0.00 0.00 0.00 76 1013.4
20260509233624 52 138 0.0 0.0 0.00 0.00 0.00 75 1013.4
20260509232918 52 0 0.0 0.0 0.00 0.00 0.00 75 1013.6
20260509232624 52 138 0.0 0.0 0.00 0.00 0.00 74 1013.5
20260509232420 52 0 0.0 0.0 0.00 0.00 0.00 74 1013.6
20260509231624 53 138 0.0 0.0 0.00 0.00 0.00 74 1013.7
20260509231418 53 0 0.0 0.0 0.00 0.00 0.00 74 1013.7
20260509230918 53 0 0.0 0.0 0.00 0.00 0.00 74 1013.7
20260509230624 53 138 0.0 0.0 0.00 0.00 0.00 74 1013.7
20260509230418 53 0 0.0 0.0 0.00 0.00 0.00 74 1013.7
20260509225918 53 0 0.0 0.0 0.00 0.00 0.00 73 1013.8
20260509225624 53 138 0.0 0.0 0.00 0.00 0.00 73 1013.8
20260509225418 53 0 0.0 0.0 0.00 0.00 0.00 73 1013.8
20260509224624 53 138 0.0 0.0 0.00 0.00 0.00 73 1013.9
20260509224418 53 0 0.0 0.0 0.00 0.00 0.00 73 1013.9
20260509223624 53 138 0.0 0.0 0.00 0.00 0.00 72 1013.9
20260509223418 53 0 0.0 2.0 0.00 0.00 0.00 72 1013.9
20260509222917 53 0 0.0 2.0 0.00 0.00 0.00 72 1013.8
20260509222624 54 138 0.0 0.0 0.00 0.00 0.00 72 1013.8
20260509222418 54 0 0.0 0.0 0.00 0.00 0.00 72 1013.9
20260509221918 54 0 0.0 0.0 0.00 0.00 0.00 73 1013.9
20260509221624 54 138 0.0 0.0 0.00 0.00 0.00 72 1013.9
20260509221418 54 0 0.0 0.0 0.00 0.00 0.00 73 1013.8
20260509220919 54 0 0.0 2.0 0.00 0.00 0.00 72 1013.9
20260509220624 54 138 1.0 2.0 0.00 0.00 0.00 72 1013.8
20260509215922 55 0 0.0 2.0 0.00 0.00 0.00 72 1013.8
20260509215624 55 138 0.0 0.0 0.00 0.00 0.00 72 1013.8
20260509215418 55 0 0.0 0.0 0.00 0.00 0.00 72 1013.8
20260509214918 55 0 0.0 0.0 0.00 0.00 0.00 71 1013.8
20260509214624 55 138 0.0 0.0 0.00 0.00 0.00 71 1013.9
20260509213918 55 0 0.0 1.0 0.00 0.00 0.00 71 1013.9
20260509213624 56 138 0.0 1.0 0.00 0.00 0.00 70 1014.0
20260509213419 56 0 0.0 1.0 0.00 0.00 0.00 70 1014.0
20260509212918 56 0 0.0 1.0 0.00 0.00 0.00 70 1014.0
20260509212418 56 0 0.0 1.0 0.00 0.00 0.00 69 1013.9
20260509211918 56 0 0.0 1.0 0.00 0.00 0.00 70 1014.0
20260509211624 56 138 0.0 1.0 0.00 0.00 0.00 69 1014.0
20260509211418 56 137 1.0 3.0 0.00 0.00 0.00 69 1014.0
20260509210624 56 138 1.0 4.0 0.00 0.00 0.00 68 1014.0
20260509210418 56 137 1.0 4.0 0.00 0.00 0.00 68 1014.0
20260509205918 56 137 1.0 3.0 0.00 0.00 0.00 67 1014.0
20260509205625 56 138 1.0 3.0 0.00 0.00 0.00 68 1013.9
20260509205418 56 137 1.0 3.0 0.00 0.00 0.00 68 1013.9
20260509204918 55 137 1.0 2.0 0.00 0.00 0.00 68 1013.9
20260509204624 55 138 1.0 2.0 0.00 0.00 0.00 69 1013.9
20260509204418 55 137 1.0 3.0 0.00 0.00 0.00 69 1013.9
20260509203918 55 137 1.0 3.0 0.00 0.00 0.00 70 1013.9
20260509203624 55 138 1.0 3.0 0.00 0.00 0.00 70 1013.9
20260509203418 55 137 1.0 3.0 0.00 0.00 0.00 70 1013.9
20260509202919 56 137 1.0 3.0 0.00 0.00 0.00 71 1014.0
20260509202624 56 138 0.0 2.0 0.00 0.00 0.00 70 1014.1
20260509202418 56 0 0.0 2.0 0.00 0.00 0.00 70 1014.1
20260509201920 56 0 0.0 2.0 0.00 0.00 0.00 70 1014.2
20260509201624 57 138 0.0 1.0 0.00 0.00 0.00 69 1014.2
20260509201418 56 0 0.0 2.0 0.00 0.00 0.00 70 1014.1
20260509200918 57 0 0.0 2.0 0.00 0.00 0.00 69 1014.2
20260509200418 57 0 0.0 2.0 0.00 0.00 0.00 69 1014.2
20260509195918 58 0 0.0 1.0 0.00 0.00 0.00 68 1014.1
20260509195624 58 138 0.0 1.0 0.00 0.00 0.00 68 1014.3
20260509194918 58 0 0.0 2.0 0.00 0.00 0.00 68 1014.1
20260509194624 59 138 0.0 1.0 0.00 0.00 0.00 67 1014.1
20260509194418 59 0 0.0 1.0 0.00 0.00 0.00 67 1014.1
20260509193918 59 0 0.0 2.0 0.00 0.00 0.00 66 1014.1
20260509193624 59 138 0.0 2.0 0.00 0.00 0.00 65 1014.1
20260509193418 59 0 0.0 2.0 0.00 0.00 0.00 65 1014.1
20260509192918 60 0 0.0 1.0 0.00 0.00 0.00 64 1014.0
20260509192624 60 138 0.0 1.0 0.00 0.00 0.00 63 1014.2
20260509192417 60 0 0.0 1.0 0.00 0.00 0.00 63 1014.2
20260509191918 60 0 0.0 2.0 0.00 0.00 0.00 63 1014.2
20260509191624 61 140 0.0 2.0 0.00 0.00 0.00 61 1014.1
20260509191418 61 69 1.0 3.0 0.00 0.00 0.00 61 1014.1
20260509190624 61 53 0.0 2.0 0.00 0.00 0.00 58 1014.0
20260509190418 61 54 1.0 2.0 0.00 0.00 0.00 58 1014.0
20260509185918 62 0 0.0 2.0 0.00 0.00 0.00 59 1013.9
20260509185624 62 53 0.0 2.0 0.00 0.00 0.00 58 1013.8
20260509184918 62 54 1.0 4.0 0.00 0.00 0.00 56 1013.9
20260509184624 62 53 1.0 3.0 0.00 0.00 0.00 56 1013.9
20260509184418 62 54 1.0 4.0 0.00 0.00 0.00 56 1013.9
20260509183918 63 54 1.0 4.0 0.00 0.00 0.00 55 1013.7
20260509183624 63 53 1.0 2.0 0.00 0.00 0.00 54 1013.7
20260509183418 63 54 1.0 4.0 0.00 0.00 0.00 54 1013.7
20260509182918 63 54 2.0 4.0 0.00 0.00 0.00 54 1013.6
20260509182624 63 53 2.0 4.0 0.00 0.00 0.00 54 1013.6
20260509181918 64 54 2.0 5.0 0.00 0.00 0.00 54 1013.6
20260509181624 64 53 1.0 5.0 0.00 0.00 0.00 54 1013.6
20260509181419 64 54 1.0 5.0 0.00 0.00 0.00 54 1013.6
20260509180918 64 48 1.0 5.0 0.00 0.00 0.00 53 1013.6
20260509180624 64 53 1.0 5.0 0.00 0.00 0.00 53 1013.6
20260509180418 64 38 1.0 5.0 0.00 0.00 0.00 53 1013.6
20260509175919 65 34 1.0 4.0 0.00 0.00 0.00 52 1013.6
20260509175624 65 33 1.0 4.0 0.00 0.00 0.00 51 1013.6
20260509175419 65 34 1.0 4.0 0.00 0.00 0.00 51 1013.6
20260509174919 65 34 1.0 3.0 0.00 0.00 0.00 52 1013.5
20260509174624 65 33 2.0 3.0 0.00 0.00 0.00 50 1013.6
20260509174418 65 34 2.0 5.0 0.00 0.00 0.00 50 1013.6
20260509173918 65 34 2.0 5.0 0.00 0.00 0.00 51 1013.5
20260509173624 65 33 1.0 4.0 0.00 0.00 0.00 51 1013.6
20260509173419 65 33 2.0 5.0 0.00 0.00 0.00 51 1013.5
20260509172918 65 33 2.0 5.0 0.00 0.00 0.00 50 1013.6
20260509172418 65 33 2.0 5.0 0.00 0.00 0.00 49 1013.5
20260509171919 66 33 1.0 5.0 0.00 0.00 0.00 49 1013.5
20260509171624 66 32 1.0 3.0 0.00 0.00 0.00 50 1013.5
20260509170918 66 33 2.0 4.0 0.00 0.00 0.00 49 1013.5
20260509170624 66 32 2.0 4.0 0.00 0.00 0.00 49 1013.5
20260509165419 66 32 2.0 7.0 0.00 0.00 0.00 49 1013.5
20260509164918 66 32 3.0 7.0 0.00 0.00 0.00 48 1013.5
20260509164624 66 31 2.0 7.0 0.00 0.00 0.00 49 1013.5
20260509164420 66 31 2.0 7.0 0.00 0.00 0.00 49 1013.5
20260509163919 66 30 3.0 5.0 0.00 0.00 0.00 50 1013.5
20260509163418 66 31 2.0 5.0 0.00 0.00 0.00 50 1013.5
20260509162624 66 30 2.0 5.0 0.00 0.00 0.00 48 1013.6
20260509162418 66 30 2.0 5.0 0.00 0.00 0.00 48 1013.7
20260509161919 66 30 2.0 4.0 0.00 0.00 0.00 49 1013.7
20260509161624 67 30 2.0 4.0 0.00 0.00 0.00 50 1013.7
20260509161418 67 30 1.0 4.0 0.00 0.00 0.00 50 1013.7
20260509160919 67 30 1.0 2.0 0.00 0.00 0.00 51 1013.8
20260509160418 67 0 0.0 2.0 0.00 0.00 0.00 47 1013.8
20260509155918 67 30 1.0 4.0 0.00 0.00 0.00 47 1013.8
20260509155624 67 30 2.0 4.0 0.00 0.00 0.00 46 1013.8
20260509155418 67 31 2.0 5.0 0.00 0.00 0.00 46 1013.8
20260509154918 67 30 3.0 7.0 0.00 0.00 0.00 48 1013.8
20260509154624 67 30 3.0 7.0 0.00 0.00 0.00 48 1013.8
20260509154419 67 30 2.0 7.0 0.00 0.00 0.00 48 1013.8
20260509153919 67 29 2.0 7.0 0.00 0.00 0.00 51 1013.7
20260509153624 67 28 3.0 7.0 0.00 0.00 0.00 49 1013.8
20260509153418 67 29 2.0 7.0 0.00 0.00 0.00 49 1013.8
20260509152918 67 29 2.0 5.0 0.00 0.00 0.00 50 1013.9
20260509152624 67 28 2.0 5.0 0.00 0.00 0.00 50 1014.1
20260509152419 67 29 2.0 5.0 0.00 0.00 0.00 50 1014.1
20260509151918 67 29 2.0 5.0 0.00 0.00 0.00 49 1014.2
20260509151625 68 28 2.0 5.0 0.00 0.00 0.00 45 1014.1
20260509151418 68 29 1.0 5.0 0.00 0.00 0.00 45 1014.1
20260509150624 68 28 3.0 5.0 0.00 0.00 0.00 45 1014.2
20260509145919 68 27 1.0 4.0 0.00 0.00 0.00 45 1014.2
20260509145624 69 26 2.0 4.0 0.00 0.00 0.00 45 1014.3
20260509145419 69 27 1.0 4.0 0.00 0.00 0.00 45 1014.3
20260509144918 69 29 1.0 3.0 0.00 0.00 0.00 47 1014.2
20260509144624 69 26 1.0 3.0 0.00 0.00 0.00 48 1014.1
20260509144418 69 32 1.0 5.0 0.00 0.00 0.00 48 1014.1
20260509143918 68 32 2.0 7.0 0.00 0.00 0.00 47 1014.3
20260509143624 69 32 2.0 7.0 0.00 0.00 0.00 48 1014.4
20260509143418 69 31 2.0 7.0 0.00 0.00 0.00 48 1014.4
20260509142919 69 30 2.0 7.0 0.00 0.00 0.00 47 1014.4
20260509142624 68 29 2.0 5.0 0.00 0.00 0.00 47 1014.5
20260509142418 68 30 2.0 5.0 0.00 0.00 0.00 47 1014.5
20260509141918 69 30 2.0 5.0 0.00 0.00 0.00 47 1014.4
20260509141624 70 30 2.0 3.0 0.00 0.00 0.00 45 1014.6
20260509141418 69 30 2.0 5.0 0.00 0.00 0.00 47 1014.5
20260509140625 70 30 2.0 4.0 0.00 0.00 0.00 45 1014.6
20260509140418 70 38 3.0 10.0 0.00 0.00 0.00 45 1014.6
20260509135919 71 54 4.0 10.0 0.00 0.00 0.00 45 1014.7
20260509135624 71 37 4.0 9.0 0.00 0.00 0.00 44 1014.8
20260509135419 71 100 4.0 9.0 0.00 0.00 0.00 44 1014.8
20260509134624 71 131 2.0 6.0 0.00 0.00 0.00 47 1014.9
20260509134419 71 123 2.0 6.0 0.00 0.00 0.00 47 1014.9
20260509133919 71 123 2.0 7.0 0.00 0.00 0.00 44 1014.9
20260509133624 71 123 2.0 7.0 0.00 0.00 0.00 45 1015.0
20260509133418 71 120 2.0 7.0 0.00 0.00 0.00 45 1015.0
20260509132918 71 73 2.0 6.0 0.00 0.00 0.00 46 1015.1
20260509132624 70 56 2.0 5.0 0.00 0.00 0.00 47 1015.0
20260509132419 70 22 3.0 6.0 0.00 0.00 0.00 47 1015.1
20260509131919 70 39 3.0 7.0 0.00 0.00 0.00 44 1015.1
20260509131624 70 355 3.0 7.0 0.00 0.00 0.00 48 1015.1
20260509131418 70 78 3.0 9.0 0.00 0.00 0.00 48 1015.1
20260509130624 71 339 2.0 5.0 0.00 0.00 0.00 47 1015.2
20260509130418 71 341 2.0 7.0 0.00 0.00 0.00 47 1015.2
20260509125919 70 54 2.0 7.0 0.00 0.00 0.00 52 1015.2
20260509125624 69 82 2.0 5.0 0.00 0.00 0.00 50 1015.3
20260509125419 69 83 2.0 5.0 0.00 0.00 0.00 50 1015.3
20260509124919 68 84 2.0 5.0 0.00 0.00 0.00 51 1015.4
20260509124624 68 84 1.0 3.0 0.00 0.00 0.00 48 1015.5
20260509124419 68 85 1.0 3.0 0.00 0.00 0.00 48 1015.5
20260509123920 68 85 1.0 4.0 0.00 0.00 0.00 48 1015.5
20260509123419 68 84 1.0 4.0 0.00 0.00 0.00 47 1015.6
20260509122919 69 84 2.0 3.0 0.00 0.00 0.00 46 1015.6
20260509122624 69 84 2.0 3.0 0.00 0.00 0.00 51 1015.6
20260509122418 69 84 2.0 4.0 0.00 0.00 0.00 51 1015.6
20260509121624 70 84 3.0 9.0 0.00 0.00 0.00 45 1015.7
20260509121420 70 43 3.0 9.0 0.00 0.00 0.00 45 1015.7
20260509120919 71 30 3.0 9.0 0.00 0.00 0.00 48 1015.8
20260509120624 70 35 2.0 8.0 0.00 0.00 0.00 50 1015.8
20260509120418 70 35 3.0 8.0 0.00 0.00 0.00 50 1015.8
20260509115919 70 47 3.0 7.0 0.00 0.00 0.00 48 1015.9
20260509115624 70 41 2.0 6.0 0.00 0.00 0.00 50 1016.0
20260509115419 70 102 2.0 6.0 0.00 0.00 0.00 50 1015.9
20260509114919 69 130 2.0 6.0 0.00 0.00 0.00 49 1016.0
20260509114419 69 153 2.0 7.0 0.00 0.00 0.00 47 1016.0
20260509113918 69 184 2.0 7.0 0.00 0.00 0.00 47 1016.0
20260509113624 69 206 1.0 4.0 0.00 0.00 0.00 47 1016.1
20260509113419 69 207 2.0 4.0 0.00 0.00 0.00 47 1016.1
20260509112919 69 205 2.0 5.0 0.00 0.00 0.00 47 1016.3
20260509112624 69 206 2.0 5.0 0.00 0.00 0.00 50 1016.3
20260509111919 68 119 1.0 5.0 0.00 0.00 0.00 54 1016.4
20260509111624 67 103 1.0 2.0 0.00 0.00 0.00 52 1016.5
20260509111419 67 102 1.0 5.0 0.00 0.00 0.00 52 1016.5
20260509110919 66 99 3.0 7.0 0.00 0.00 0.00 51 1016.6
20260509110624 67 97 3.0 7.0 0.00 0.00 0.00 50 1016.5
20260509110418 67 97 3.0 8.0 0.00 0.00 0.00 50 1016.5
20260509105919 68 97 2.0 8.0 0.00 0.00 0.00 48 1016.7
20260509105624 69 98 2.0 4.0 0.00 0.00 0.00 51 1016.6
20260509105419 69 97 2.0 5.0 0.00 0.00 0.00 51 1016.7
20260509104624 68 98 2.0 5.0 0.00 0.00 0.00 55 1016.6
20260509104419 68 98 3.0 9.0 0.00 0.00 0.00 55 1016.6
20260509103624 67 101 3.0 5.0 0.00 0.00 0.00 57 1016.7
20260509103419 67 101 3.0 8.0 0.00 0.00 0.00 57 1016.7
20260509102919 67 102 3.0 8.0 0.00 0.00 0.00 58 1016.9
20260509102624 66 104 3.0 7.0 0.00 0.00 0.00 58 1016.9
20260509102418 66 103 3.0 7.0 0.00 0.00 0.00 58 1016.8
20260509101918 66 103 2.0 5.0 0.00 0.00 0.00 57 1017.0
20260509101625 66 104 2.0 7.0 0.00 0.00 0.00 59 1017.0
20260509101419 66 104 2.0 7.0 0.00 0.00 0.00 61 1017.0
20260509100919 66 106 3.0 7.0 0.00 0.00 0.00 59 1016.9
20260509100624 65 106 3.0 7.0 0.00 0.00 0.00 57 1017.0
20260509100418 65 107 3.0 8.0 0.00 0.00 0.00 57 1017.0
20260509095919 65 107 2.0 8.0 0.00 0.00 0.00 55 1017.0
20260509095419 65 107 2.0 6.0 0.00 0.00 0.00 56 1017.0
20260509094919 65 105 2.0 10.0 0.00 0.00 0.00 56 1017.0
20260509094624 64 107 2.0 10.0 0.00 0.00 0.00 55 1017.1
20260509094419 64 102 3.0 10.0 0.00 0.00 0.00 55 1017.1
20260509093919 64 102 3.0 9.0 0.00 0.00 0.00 57 1017.0
20260509093624 64 100 3.0 8.0 0.00 0.00 0.00 58 1017.1
20260509093419 64 108 3.0 9.0 0.00 0.00 0.00 58 1017.1
20260509092918 64 116 3.0 8.0 0.00 0.00 0.00 58 1017.1
20260509092624 64 117 3.0 8.0 0.00 0.00 0.00 62 1017.0
20260509092419 64 117 3.0 10.0 0.00 0.00 0.00 62 1017.0
20260509091920 64 104 3.0 10.0 0.00 0.00 0.00 61 1017.1
20260509091624 64 93 3.0 5.0 0.00 0.00 0.00 61 1017.0
20260509091418 64 85 3.0 8.0 0.00 0.00 0.00 61 1017.0
20260509090919 64 82 3.0 8.0 0.00 0.00 0.00 60 1017.0
20260509085918 63 87 3.0 8.0 0.00 0.00 0.00 63 1017.0
20260509085624 64 86 3.0 6.0 0.00 0.00 0.00 64 1017.1
20260509085419 64 90 3.0 7.0 0.00 0.00 0.00 64 1017.2
20260509084919 63 63 3.0 7.0 0.00 0.00 0.00 63 1017.1
20260509084624 63 31 3.0 7.0 0.00 0.00 0.00 65 1017.1
20260509084419 63 55 3.0 7.0 0.00 0.00 0.00 65 1017.1
20260509083918 63 79 3.0 7.0 0.00 0.00 0.00 64 1017.1
20260509083624 63 89 3.0 7.0 0.00 0.00 0.00 64 1017.2
20260509083419 63 90 2.0 8.0 0.00 0.00 0.00 64 1017.2
20260509082624 62 92 2.0 4.0 0.00 0.00 0.00 68 1017.2
20260509081919 61 92 3.0 7.0 0.00 0.00 0.00 66 1017.2
20260509081624 61 92 3.0 5.0 0.00 0.00 0.00 69 1017.3
20260509081419 61 93 3.0 8.0 0.00 0.00 0.00 69 1017.2
20260509080918 60 94 2.0 8.0 0.00 0.00 0.00 68 1017.3
20260509080624 60 95 2.0 7.0 0.00 0.00 0.00 69 1017.3
20260509080419 60 94 3.0 7.0 0.00 0.00 0.00 69 1017.3
20260509075918 60 93 3.0 7.0 0.00 0.00 0.00 68 1017.2
20260509075624 60 93 3.0 7.0 0.00 0.00 0.00 70 1017.3
20260509075419 60 92 3.0 7.0 0.00 0.00 0.00 70 1017.3
20260509074919 60 93 2.0 7.0 0.00 0.00 0.00 69 1017.3
20260509074624 60 93 2.0 7.0 0.00 0.00 0.00 70 1017.3
20260509074418 60 93 2.0 7.0 0.00 0.00 0.00 70 1017.3
20260509073918 59 93 2.0 5.0 0.00 0.00 0.00 71 1017.2
20260509073418 59 93 2.0 5.0 0.00 0.00 0.00 71 1017.3
20260509072624 58 94 2.0 4.0 0.00 0.00 0.00 74 1017.3
20260509072419 58 93 2.0 4.0 0.00 0.00 0.00 74 1017.3
20260509071625 57 94 2.0 7.0 0.00 0.00 0.00 73 1017.4
20260509071418 57 118 3.0 7.0 0.00 0.00 0.00 73 1017.5
20260509070919 57 124 3.0 6.0 0.00 0.00 0.00 74 1017.3
20260509070624 56 125 2.0 4.0 0.00 0.00 0.00 76 1017.3
20260509070418 56 129 2.0 7.0 0.00 0.00 0.00 76 1017.3
20260509065918 56 160 3.0 7.0 0.00 0.00 0.00 76 1017.4
20260509065625 55 144 3.0 6.0 0.00 0.00 0.00 77 1017.3
20260509064918 54 110 3.0 7.0 0.00 0.00 0.00 78 1017.3
20260509064624 54 103 3.0 7.0 0.00 0.00 0.00 78 1017.3
20260509064419 54 104 2.0 7.0 0.00 0.00 0.00 78 1017.3
20260509063919 54 105 2.0 5.0 0.00 0.00 0.00 80 1017.4
20260509063419 53 105 2.0 5.0 0.00 0.00 0.00 79 1017.3
20260509062918 53 105 2.0 5.0 0.00 0.00 0.00 82 1017.3
20260509062624 52 106 2.0 5.0 0.00 0.00 0.00 82 1017.3
20260509062418 52 105 3.0 5.0 0.00 0.00 0.00 82 1017.3
20260509061918 52 106 2.0 5.0 0.00 0.00 0.00 82 1017.2